Regional Weather Roundup
Issued by NWS

Home | Current Version | Previous Version | Graphics & Text | Print | Product List | Glossary Off
Versions: 1 2 3 4 5 6 7 8 9 10 11 12 13 14 15 16 17 18 19 20 21 22 23 24 25 26 27 28 29 30 31 32 33 34 35 36 37 38 39 40 41 42 43 44 45 46 47 48 49 50

000
ASUS43 KFSD 171510
RWRSD

WEATHER ROUNDUP FOR SOUTH DAKOTA
NATIONAL WEATHER SERVICE SIOUX FALLS SD
900 AM CST FRI NOV 17 2017

NOTE: "FAIR" INDICATES FEW OR NO CLOUDS BELOW 12,000 FEET WITH NO
SIGNIFICANT WEATHER AND/OR OBSTRUCTIONS TO VISIBILITY.


SDZ001>005-009-010-012>017-171600-
NORTHWEST AND NORTH CENTRAL SOUTH DAKOTA

CITY           SKY/WX    TMP DP  RH WIND       PRES   REMARKS
BUFFALO          N/A     35  31  85 W6        29.60R
FAITH            N/A     37  37 100 SW8       29.68S
MOBRIDGE       CLOUDY    38  32  79 NW6       29.66R
$$

SDZ012>016-024>037-041>051-057-063-072>074-171600-
SOUTHWEST AND SOUTH CENTRAL SOUTH DAKOTA

CITY           SKY/WX    TMP DP  RH WIND       PRES   REMARKS
RAPID CTY ARPT CLOUDY    36  35  96 NW6       29.70R
PIERRE         LGT RAIN  39  35  86 NW8       29.68R
CUSTER         CLOUDY    32  31  96 CALM      29.65R
ELLSWORTH AFB  CLOUDY    37  37 100 W5        29.69R
PHILIP         CLOUDY    39  30  70 CALM      29.69S
PINE RIDGE     LGT RAIN  37  32  82 SW5       29.70R
SPEARFISH      CLOUDY    36  34  93 W3        29.68R
WINNER         CLOUDY    41  31  67 NW12      29.66R
$$

SDZ004>011-016>023-039-040-171600-
NORTHEAST SOUTH DAKOTA

CITY           SKY/WX    TMP DP  RH WIND       PRES   REMARKS
ABERDEEN       MIX PCPN  34  30  85 MISG      29.65R
WATERTOWN      CLOUDY    34  32  92 NW7       29.60R WCI  28
BROOKINGS      CLOUDY    36  32  85 N5        29.60R
SISSETON         N/A     34  29  82 N8        29.62R WCI  27
$$

SDZ017-020-022-023-036>040-048>070-171600-
SOUTHEAST SOUTH DAKOTA

CITY           SKY/WX    TMP DP  RH WIND       PRES   REMARKS
SIOUX FALLS    CLOUDY    46  40  79 S8        29.58S
HURON          CLOUDY    35  30  82 N10       29.62R WCI  27
CHAMBERLAIN    PTSUNNY   42  33  69 NW10      29.66R
MITCHELL       CLOUDY    37  32  82 N10       29.60R
YANKTON        CLOUDY    48  41  76 W12G17    29.58S
$$

ABBREVIATIONS USED IN REMARKS
   TC - TEMPERATURE IN CELSIUS
  WCI - WIND CHILL INDEX
   HX - HEAT INDEX
  VSB - VISIBILITY





USA.gov is the U.S. government's official web portal to all federal, state and local government web resources and services.